Location: Berlin
(42.3812°N, 71.6370°W)
Time: 05:46:59
(UTC+00:00)

Cosmos 1331 Rocket - Pass Details

Date: 15 November 2025
Orbit: 746 x 772 km, 74.0° (Epoch: 09 December)

Event Time Altitude Azimuth Distance (km) Brightness Sun altitude
Rises 10:00:57 0° 190° (S) 3,228 7.2 -17.9°
Reaches altitude 10° 10:03:20 10° 187° (S) 2,303 6.5 -17.4°
Maximum altitude 10:08:31 66° 106° (ESE) 836 4.4 -16.5°
Drops below altitude 10° 10:13:42 10° 25° (NNE) 2,305 6.7 -15.6°
Sets 10:16:05 0° 23° (NNE) 3,231 7.4 -15.1°
